COSMOS 1275 DEB, 27735

Orbit data source: Space-Track

COSMOS 1275 DEB, 27735 is space debris in LEO originally from a launch on Thu, 04 Jun 1981 UTC launched from the Plesetsk Missile And Space Complex (PKMTR). Debris objects in space refer to the collection of defunct objects orbiting the Earth. Examples of debris include non-operational satellites, rocket bodies, and fragments generated from explosions, collisions, or faulty payload assembly.

Loading next visibility...
Identifier
27735, 1981-053MQ
Orbit
LEO
Country
Flag of CISCIS
Related business
Manufacturer
Unknown
Mission
Spacecraft
Bus & Motor
Unknown
Mass
Unknown
Launch date (UTC)
1981-06-04 (44 years ago)
Launch vehicle
Unknown
Launch site
Plesetsk Missile And Space Complex (PKMTR)
Object type
Payload
Rocket body
Debris
Shape & HBR
Unknown shape, 0.1 m
Radar Cross Section
Small (<0.1 m²)

Expand to show TLE details & history
Last TLE update: 2 days ago

TLE from 2 days ago
0 COSMOS 1275 DEB
1 27735U 81053MQ  25285.77127831  .00002463  00000-0  21171-2 0  9998
2 27735  83.0479  38.6399 0096189 209.3407 303.0199 13.84235512590590
Epoch: 2025-10-12T18:30Z
TLE epoch observation values (Epoch: 2025-10-12T18:30:38.445Z)
Latitude
28.3843°
Longitude
-84.36189°
Altitude
914.478 km
Speed
7.416 km/s
True Right ascension
14h 19m 31s
True Declination
28° 14' 38"
Sunlit
Object was in daylight at epoch
Visualization orbit readout
Latitude
Unknown
Longitude
Unknown
Altitude
Unknown
Speed
Unknown
Apparent Right ascension
Unknown
Apparent Declination
Unknown
Sunlit
N/A
Visualization observer readout
Local Sidereal Time
07:57:40
Azimuth
Unknown
Elevation
Unknown
Doppler factor
Unknown
Orbital elements
Apogee altitude
1,016.484 km
Perigee altitude
875.583 km
Semi-major axis
7,324.171 km
Eccentricity
0.00962
Inclination
83.0479°
RAAN
38.6399°
Arg. of periapsis
209.3407°
True anomaly
302.08964°
Mean anomaly
303.0199°
Eccentric anomaly
302.55537°
Mean motion
3.46263 °/min
Orbital period
103.97 mins
BSTAR
0.0021171
Loading maneuver chart data...
Computing Atmospheric mass density...

Documentation

Showing up to 5 results
|